Location: Владивосток
(43.1151°N, 131.8856°E)
Time: 02:34:54
(UTC+10:00)

First-Move - Pass Details

Date: 02 July 2022
Orbit: 572 x 658 km, 97.6° (Epoch: 09 August)

Event Time Altitude Azimuth Distance (km) Brightness Sun altitude
Rises 04:54:07 0° 18° (NNE) 2,950 ? -7.1°
Reaches altitude 10° 04:56:23 10° 24° (NNE) 2,048 ? -6.8°
Maximum altitude 05:00:43 48° 99° (E) 848 ? -6.1°
Drops below altitude 10° 05:05:05 10° 174° (S) 2,062 ? -5.5°
Sets 05:07:22 0° 180° (S) 2,973 ? -5.2°
